CDT,Max TemperatureF,Mean TemperatureF,Min TemperatureF,Max Dew PointF,MeanDew PointF,Min DewpointF,Max Humidity, Mean Humidity, Min Humidity, Max Sea Level PressureIn, Mean Sea Level PressureIn, Min Sea Level PressureIn, Max VisibilityMiles, Mean VisibilityMiles, Min VisibilityMiles, Max Wind SpeedMPH, Mean Wind SpeedMPH, Max Gust SpeedMPH,PrecipitationIn, CloudCover, Events, WindDirDegrees
2013-4-1,33,24,17,10,6,3,65,46,29,30.21,30.15,30.05,10,10,10,10,6,23,0.00,2,,301
2013-4-2,37,22,9,10,6,1,84,51,24,30.38,30.29,30.22,10,10,10,8,2,,0.00,0,,287
2013-4-3,41,24,7,24,11,2,84,53,27,30.44,30.32,30.07,10,10,10,14,4,26,0.00,0,,191
2013-4-4,48,37,28,30,22,14,68,50,30,30.18,30.04,29.97,10,10,10,15,8,22,0.00,2,,228
2013-4-5,39,27,15,27,16,11,84,59,31,30.30,30.19,30.03,10,9,2,9,3,,0.00,3,Snow,131
2013-4-6,43,37,32,36,30,24,93,84,60,30.04,29.73,29.55,10,6,1,17,7,26,0.36,8,Rain-Snow,135
2013-4-7,41,37,33,31,30,28,92,81,65,29.97,29.86,29.70,10,10,9,7,2,,0.00,7,,178
2013-4-8,42,38,33,37,35,32,100,92,81,30.07,29.89,29.75,10,6,2,7,3,,0.52,8,Rain,48
2013-4-9,41,36,32,34,28,16,93,75,46,30.21,30.12,30.02,10,10,6,16,4,25,0.00,6,,36
2013-4-10,39,34,28,23,20,12,78,56,40,30.25,30.16,30.04,10,10,10,14,7,25,0.00,5,,44
2013-4-11,34,30,26,27,23,12,93,78,42,30.03,29.85,29.74,10,4,0,20,12,29,0.08,8,Fog-Snow,50
2013-4-12,35,30,26,27,24,19,88,81,61,29.84,29.72,29.67,10,4,0,14,7,18,0.11,8,Fog-Snow,38
2013-4-13,34,28,19,23,20,16,93,76,54,30.02,29.86,29.78,10,8,2,7,1,,0.01,7,Snow,290
2013-4-14,39,24,12,31,25,9,93,81,50,30.03,29.79,29.61,10,5,0,20,7,32,0.51,7,Fog-Rain-Snow,85
2013-4-15,37,35,33,32,28,24,93,75,65,29.92,29.68,29.55,10,10,8,16,8,30,0.00,7,,193
2013-4-16,46,36,25,31,26,20,85,69,40,30.38,30.14,29.93,10,9,2,10,4,18,0.00,7,Snow,249
2013-4-17,42,34,26,30,27,22,93,78,55,30.41,30.20,29.97,10,9,3,10,5,20,0.04,6,Rain,50
2013-4-18,34,32,30,30,29,27,93,90,85,29.98,29.59,29.36,10,3,0,16,7,36,0.59,8,Fog-Rain-Snow,23
2013-4-19,32,22,14,27,22,10,93,81,69,29.98,29.57,29.32,10,2,0,13,7,29,0.21,7,Fog-Snow,338
2013-4-20,37,18,1,18,9,-5,96,67,30,30.38,30.19,29.92,10,8,1,7,1,,0.00,0,,80
2013-4-21,39,30,21,37,28,13,93,80,51,30.39,30.23,30.07,10,8,2,22,8,30,0.09,7,Rain-Snow,158
2013-4-22,48,38,30,39,31,22,100,81,40,30.25,30.16,30.08,10,5,0,10,3,22,0.38,7,Fog-Snow,22
2013-4-23,42,33,24,30,25,15,93,77,35,30.12,30.06,30.02,10,6,0,9,4,16,0.22,6,Fog-Snow,7
2013-4-24,46,30,16,34,26,10,93,77,42,30.06,29.95,29.88,10,9,0,12,2,24,0.05,5,Fog-Rain,208
2013-4-25,48,35,24,30,25,19,93,71,33,30.19,30.10,29.94,10,8,0,9,2,18,0.00,3,Fog,220
2013-4-26,66,52,34,39,34,25,85,57,34,30.17,30.09,30.04,10,10,6,9,5,18,0.13,2,Rain,186
2013-4-27,72,50,28,44,34,25,92,57,23,30.17,30.06,29.91,10,10,10,14,2,20,0.00,0,,192
2013-4-28,73,62,51,54,48,41,100,74,33,29.90,29.78,29.70,10,7,1,15,6,26,0.34,5,Rain-Thunderstorm,196
2013-4-29,73,56,39,52,44,37,100,74,29,29.82,29.75,29.63,10,6,0,9,1,,0.00,4,Fog,148
2013-4-30,78,66,55,55,45,22,84,53,24,29.87,29.61,29.46,10,10,10,15,8,30,0.00,2,Rain,200